Погода в Пяозерском

Россия / Республика Карелия     65°45′51″N   31°04′59″E
темп.,
°C
ветер,
м/с
пор.,
м/с
влажн.,
%
обл.,
%
осадки,
мм/ч
давл.,
гПа
погр.,
м
24 сентября, пт
пт2400:00+6ююв51279100 0.0 1006980
03:00+6юв51285100 0.0 1006790
06:00+7юв41191100 0.1 1005675
09:00+6юв41191100 0.4 1005504
12:00+6вюв3990100 0.1 1005491
15:00+8вюв468594 0.1 1004607
18:00+7юв378996 0.1 1004586
21:00+7юв3895100 0.3 1003408
25 сентября, сб
сб2500:00+7ююв3895100 0.4 1002390
03:00+5юв269795 0.5 1001151
06:00+5юв31096100 0.1 1000359
09:00+7юв4892100 0.2 999536
12:00+8ююв4881100 0.2 1000949
15:00+6ююв4792100 0.9 10001030
18:00+6юв3792100 0.4 1001728
21:00+6юв2497100 0.6 1003198
26 сентября, вс
вс2600:00+6вюв1197100 0.6 100444
03:00+6св1196100 0.8 100735
06:00+6с2297100 0.2 101081
09:00+7ссз2497100 0.3 1012175
12:00+8с2493100 0.1 1016327
15:00+8с249099 0.1 1019372
18:00+8с119396 0.0 102115
21:00+7зсз119547 0.0 102310
27 сентября, пн
пн2700:00+5з119589 0.0 102512
03:00+4з229458 0.0 102719
06:00+3з119422 0.0 102910
09:00+5зюз138812 0.0 103095
12:00+9зюз247320 0.0 1031445
15:00+11зюз236579 0.0 1031696
18:00+8юз228212 0.0 103116
21:00+5юз229119 0.0 103217
28 сентября, вт
вт2800:00+5зюз229210 0.0 103337
03:00+4зюз249442 0.0 103370
06:00+3зюз239369 0.0 103357
09:00+5зюз258381 0.0 1033145
12:00+10зюз356573 0.0 1033412
15:00+12зюз355753 0.0 1032651
18:00+9зюз257845 0.0 103294
21:00+6зюз289332 0.0 1032159